Content
SEND FEEDBACK

Daily
Averages
Monthly
Summary
United States of America

PRESCOTT VALLEY, ARIZONA


Home > North America > United States > Arizona
Elevation: 5020 feet     Latitude: 34 39N     Longitude: 112 26W

WEATHER
 
SELECT A DAY
Number of Records: 175,166;   Date Range: 1/1/95 - 9/3/14
 
SHARE

PRINT THIS DATA

[ ← Previous Day ]
WEATHER ALMANAC - FEBRUARY 13, 2013
[ Next Day → ]
[ °C ]   °F
Weather ElementAverageHighLow
Temperature35.7 °F52 °F (4:53 pm)23 °F (1:53 am)
Dewpoint18.3 °F23 °F (5:53 pm)14 °F (3:53 am)
Humidity52.4 %75 % (11:53 pm)26 % (2:53 pm)
Barometer30.16 in30.23 in (8:53 am)30.09 in (3:53 pm)
Wind Speed4.7 mph10.4 mph (4:53 pm)
Weather ElementAverage
Visibility10 mi
Wind DirectionSSW (190.9 °)

Weather ElementTotal
Precipitation---
Heating Degree Days27.5 (Base 65)
Averaged from 23 records on February 13, 2013
WEATHER CONDITIONS BREAKOUT
WIND DIRECTION BREAKOUT
WEATHER BY HOUR - FEBRUARY 13, 2013
[ °C ]   °F
Local TimeTemperatureDewpointHumidityBarometerVisibilityWind DirectionWind SpeedGust SpeedPrecipitationEventsConditions
1:53 AM23.0 °F15.1 °F72 %30.20 in10.0 miSSW (200°)3.5 mphClear
2:53 AM23.0 °F15.1 °F72 %30.19 in10.0 miSSW (200°)3.5 mphClear
3:53 AM27.0 °F14.0 °F58 %30.16 in10.0 miWest (260°)3.5 mphClear
4:53 AM23.0 °F15.1 °F72 %30.17 in10.0 miWSW (240°)3.5 mphClear
5:53 AM26.1 °F15.1 °F63 %30.18 in10.0 miWest (270°)4.6 mphClear
6:53 AM25.0 °F15.1 °F66 %30.21 in10.0 miWNW (290°)4.6 mphClear
7:53 AM24.1 °F16.0 °F71 %30.22 in10.0 miSouth (190°)4.6 mphClear
8:53 AM30.0 °F19.0 °F64 %30.23 in10.0 miCalmClear
9:53 AM34.0 °F17.1 °F50 %30.21 in10.0 miCalmClear
10:53 AM37.9 °F17.1 °F43 %30.20 in10.0 miNorth (360°)3.5 mphClear
11:53 AM42.1 °F18.0 °F38 %30.19 in10.0 miVariable4.6 mphClear
12:53 PM46.0 °F18.0 °F33 %30.16 in10.0 miNNE (30°)4.6 mphClear
1:53 PM48.0 °F18.0 °F30 %30.13 in10.0 miVariable5.8 mphClear
2:53 PM50.0 °F16.0 °F26 %30.12 in10.0 miVariable5.8 mphClear
3:53 PM51.1 °F19.0 °F28 %30.09 in10.0 miNNW (340°)9.2 mphClear
4:53 PM52.0 °F19.9 °F28 %30.09 in10.0 miNNW (340°)10.4 mphClear
5:53 PM48.0 °F23.0 °F37 %30.10 in10.0 miNW (310°)5.8 mphClear
6:53 PM44.1 °F21.9 °F42 %30.12 in10.0 miWest (270°)8.1 mphClear
7:53 PM39.0 °F21.9 °F50 %30.15 in10.0 miWest (270°)4.6 mphClear
8:53 PM36.0 °F21.9 °F57 %30.14 in10.0 miSSW (200°)6.9 mphClear
9:53 PM33.1 °F21.9 °F64 %30.14 in10.0 miSSW (210°)4.6 mphClear
10:53 PM30.9 °F21.0 °F67 %30.15 in10.0 miSSW (200°)3.5 mphClear
11:53 PM28.0 °F21.0 °F75 %30.15 in10.0 miSSW (210°)3.5 mphClear
Hourly data recorded from KPRC, located miles away from Prescott Valley, Arizona







STORIES FROM OUR PARTNERS